Preview of NWS' New Version of Forecast
This preview is not operational and should not be used for support decisions.

Regional Weather Roundup (RWR)

Issued by National Weather Service (NWS)

                            
000
ASUS45 KCYS 251310
RWRWY 

WYOMING REGIONAL WEATHER ROUNDUP
NATIONAL WEATHER SERVICE CHEYENNE WY
700 AM MDT SUN AUG 25 2019

NOTE:  "FAIR" INDICATES FEW OR NO CLOUDS BELOW 12,000 FEET
WITH NO SIGNIFICANT WEATHER AND/OR OBSTRUCTIONS TO VISIBILITY.

WYZ001-251400-
YELLOWSTONE NATIONAL PARK
  
CITY           SKY/WX    TMP DP  RH WIND       PRES   REMARKS
LK YELLOWSTONE   N/A     41  35  79 CALM      30.17R                  
W YELLOWSTONE  NOT AVBL                                               

$$
WYZ002>013-054>058-071-098>099-251400-
NORTHERN WYOMING
  
CITY           SKY/WX    TMP DP  RH WIND       PRES   REMARKS
JACKSON        FAIR      57  33  40 SW7       30.09S                  
CODY           FAIR      55  46  71 CALM      29.98R                  
GREYBULL       FAIR      58  44  60 S5        29.86R                  
WORLAND        FAIR      55  47  74 S9        29.89R                  
SHERIDAN       FAIR      57  52  83 S5        29.91R                  
BUFFALO        FAIR      59  51  75 NW12        N/A                   
GILLETTE       FAIR      53  52  96 CALM      29.89R                  
HULETT         FAIR      59  54  82 CALM      29.91                   
NEWCASTLE      FAIR      59  50  72 SW7       29.86                   

$$
WYZ014>020-022>026-101>103-251400-
CENTRAL WYOMING
  
CITY           SKY/WX    TMP DP  RH WIND       PRES   REMARKS
BIG PINEY      FAIR      45  31  58 NW3       30.15R                  
PINEDALE       FAIR      37  32  81 NW5       30.16  WCI  34          
DUBOIS         FAIR      55  28  35 NW12      30.10                   
LANDER         FAIR      65  37  35 W7        30.00R                  
RIVERTON       FAIR      65  35  33 NW13      29.98R                  
CASPER         FAIR      59  38  45 W5        29.94R                  
DOUGLAS        FAIR      50  47  89 CALM      29.92R                  

$$
WYZ021-027>030-104>119-251400-
SOUTHERN WYOMING
  
CITY           SKY/WX    TMP DP  RH WIND       PRES   REMARKS
EVANSTON       FAIR      56  31  38 SW12      30.19R                  
KEMMERER       FAIR      54  28  37 W10       30.18                   
ROCK SPRINGS   FAIR      60  29  30 SW5       30.14R                  
DIXON          FAIR      46  32  56 E6G20     30.17S                  
RAWLINS        FAIR      62  30  29 SW12      30.12R                  
SARATOGA       FAIR      52  32  46 SE3       30.14R                  
LARAMIE        FAIR      60  29  30 W8        30.12R                  
CHEYENNE       FAIR      62  36  37 W7        30.03R                  
TORRINGTON     CLOUDY    58  57  97 CALM      29.87R                  
PINE BLUFFS    FAIR      54  45  71 W12       29.95S                  

$$